[[{"header":{"parameterUnit":"m.s-1","parameterCategory":1,"la1":30.2992,"la2":30.254,"lo1":-89.0895,"lo2":-89.0443,"dy":0.0025,"dx":0.0025,"nx":19,"ny":19,"refTime":"2026-04-10T03:00:00:Z","depth":0,"parameterNumber":2,"parameterNumberName":"U-component_of_WINDS"},"data":[0,0,0,-1.8152,-1.8154,-1.8218,-1.8218,-1.8328,-1.8329,0,0,0,0,0,0,0,0,0,0,0,-1.815,-1.8151,-1.8152,-1.8154,-1.8218,-1.8218,-1.8328,-1.8329,0,0,0,0,0,0,0,0,0,0,0,-1.8149,-1.8151,-1.8152,-1.8154,-1.8218,-1.8218,-1.8327,-1.8269,0,0,0,0,0,0,0,0,0,0,-1.8202,-1.8216,-1.815,-1.8152,-1.8155,-1.8218,-1.8218,-1.8266,-1.8273,-1.831,0,-1.8348,0,-1.834,-1.8338,-1.8339,0,0,0,-1.8142,-1.821,-1.8213,-1.8152,-1.8156,-1.8218,-1.8186,-1.8269,-1.8277,-1.832,-1.8349,-1.8353,-1.8342,-1.8339,-1.834,-1.8597,-1.8599,0,0,-1.8138,-1.817,-1.8207,-1.8218,-1.821,-1.8184,-1.8188,-1.8274,-1.8308,-1.835,-1.8355,-1.8344,-1.834,-1.8341,-1.8596,-1.8598,0,0,0,-1.8136,-1.8168,-1.8168,-1.8215,-1.8224,-1.8186,-1.8191,-1.8305,-1.8302,-1.8356,-1.8345,-1.8341,-1.8342,-1.8594,-1.8596,-1.8717,0,0,0,-1.8133,-1.8167,-1.8167,-1.8187,-1.8223,-1.8265,-1.822,-1.8296,-1.8304,-1.8345,-1.8341,-1.8344,-1.8592,-1.8595,-1.8709,-1.8769,0,0,0,-1.814,-1.8167,-1.8183,-1.8189,-1.8218,-1.8263,-1.8265,-1.8297,-1.8299,-1.8339,-1.8344,-1.859,-1.8594,-1.8702,-1.8758,-1.8847,0,0,0,-1.8156,-1.8289,-1.8185,-1.8329,-1.8217,-1.8336,-1.8264,-1.8351,-1.8399,-1.8341,-1.8592,-1.8596,-1.87,-1.8751,-1.884,-1.893,-1.897,0,0,-1.8341,-1.8312,-1.8394,-1.8303,-1.8449,-1.8324,-1.8487,-1.8501,-1.8475,-1.8558,-1.8564,-1.8712,-1.8757,-1.8846,-1.9178,-1.921,0,0,0,-1.8464,-1.8523,-1.8555,-1.8602,-1.8616,-1.8632,-1.8617,-1.8622,-1.8691,-1.8524,-1.8766,-1.8792,-1.8843,-1.8884,-1.8911,-1.8953,-1.8616,-1.8615,-1.8615,-1.8774,-1.8733,-1.8867,-1.8834,-1.888,-1.8863,-1.8897,-1.8901,-1.8846,-1.8904,-1.8929,-1.9136,-1.9185,-1.9206,-1.925,-1.8971,-1.8972,-1.8972,-1.8972,-1.9044,-1.9123,-1.9045,-1.9147,-1.9103,-1.9188,-1.9176,-1.9134,-1.9207,-1.9113,-1.9156,-1.906,-1.9242,-1.9279,-1.8981,-1.898,-1.8978,-1.8978,-1.8977,-1.9245,-1.9275,-1.9278,-1.9342,-1.9396,-1.9356,-1.943,-1.9386,-1.9346,-1.9388,-1.9411,-1.9409,-1.9403,-1.9401,-1.9402,-1.9403,-1.9403,-1.9404,-1.9404,-1.9453,-1.9452,-1.952,-1.9544,-1.9568,-1.9595,-1.9577,-1.96,-1.9614,-1.9577,-1.9577,-1.9518,-1.9266,-1.9205,-1.9416,-1.9414,-1.9412,-1.9411,-1.941,-1.9746,-1.9672,-1.9777,-1.9801,-1.9825,-1.9882,-1.9824,-1.9874,-1.9887,-1.9924,-1.9855,-1.9675,-1.9643,-1.9621,-1.957,-1.9862,-1.9862,-1.9862,-1.9862,-1.9917,-1.9895,-1.9992,-2.0034,-2.0069,-2.0028,-2.0147,-2.0134,-2.011,-2.0115,-2.0065,-1.9994,-1.9973,-1.9953,-1.9924,-1.9876,-2.0239,-2.0239,-2.024,-2.0095,-2.0075,-2.0186,-2.016,-2.0175,-2.0189,-2.03,-2.0352,-2.0308,-2.0254,-2.0118,-2.0102,-1.9986,-1.995,-1.9896,-1.9852,-1.9763,0,0]},{"header":{"parameterUnit":"m.s-1","parameterCategory":1,"la1":30.2992,"la2":30.254,"lo1":-89.0895,"lo2":-89.0443,"dy":0.0025,"dx":0.0025,"nx":19,"ny":19,"refTime":"2026-04-10T03:00:00:Z","depth":0,"parameterNumber":3,"parameterNumberName":"V-component_of_WINDS"},"data":[0,0,0,-1.4556,-1.4558,-1.4656,-1.4656,-1.4767,-1.4768,0,0,0,0,0,0,0,0,0,0,0,-1.4519,-1.4519,-1.4556,-1.4558,-1.4656,-1.4656,-1.4767,-1.4768,0,0,0,0,0,0,0,0,0,0,0,-1.4518,-1.4519,-1.452,-1.4558,-1.4656,-1.4656,-1.4767,-1.4698,0,0,0,0,0,0,0,0,0,0,-1.4606,-1.4563,-1.4519,-1.452,-1.4559,-1.4655,-1.4656,-1.4695,-1.4703,-1.4717,0,-1.4728,0,-1.475,-1.4775,-1.4775,0,0,0,-1.4564,-1.4557,-1.4591,-1.452,-1.456,-1.4655,-1.4613,-1.4699,-1.4708,-1.4727,-1.473,-1.4734,-1.4752,-1.4775,-1.4776,-1.4839,-1.4839,0,0,-1.4559,-1.4532,-1.4585,-1.4596,-1.458,-1.461,-1.4616,-1.4705,-1.4706,-1.473,-1.4737,-1.4753,-1.4776,-1.4777,-1.4839,-1.4839,0,0,0,-1.4539,-1.4528,-1.456,-1.4591,-1.4609,-1.4613,-1.462,-1.4702,-1.4715,-1.4738,-1.4755,-1.4777,-1.4778,-1.4839,-1.4839,-1.4812,0,0,0,-1.4536,-1.4516,-1.4557,-1.4541,-1.4607,-1.4657,-1.4615,-1.4709,-1.472,-1.4754,-1.4777,-1.4779,-1.4839,-1.4839,-1.4812,-1.4803,0,0,0,-1.4515,-1.4514,-1.4525,-1.454,-1.4581,-1.4656,-1.4674,-1.4712,-1.4729,-1.4775,-1.4779,-1.4839,-1.4839,-1.4813,-1.4805,-1.4812,0,0,0,-1.4485,-1.45,-1.4524,-1.4548,-1.458,-1.4638,-1.4674,-1.4719,-1.4755,-1.4777,-1.4839,-1.4839,-1.4813,-1.4806,-1.4812,-1.4812,-1.481,0,0,-1.4489,-1.45,-1.4516,-1.454,-1.4587,-1.4626,-1.467,-1.4729,-1.4758,-1.481,-1.4812,-1.4812,-1.4805,-1.4812,-1.4806,-1.4804,0,0,0,-1.4508,-1.4519,-1.4537,-1.457,-1.4616,-1.4654,-1.4709,-1.4731,-1.4776,-1.4779,-1.4818,-1.4814,-1.4819,-1.4821,-1.4819,-1.4825,-1.4838,-1.4838,-1.4838,-1.4475,-1.4511,-1.454,-1.4588,-1.4619,-1.4676,-1.4705,-1.4744,-1.4772,-1.478,-1.4796,-1.4788,-1.4788,-1.4787,-1.4793,-1.4799,-1.4799,-1.4799,-1.4799,-1.4484,-1.4505,-1.4541,-1.4582,-1.462,-1.4655,-1.471,-1.4728,-1.4766,-1.4779,-1.4786,-1.4796,-1.4783,-1.479,-1.4797,-1.4797,-1.4798,-1.4798,-1.4798,-1.4466,-1.4483,-1.4509,-1.456,-1.4595,-1.4643,-1.4677,-1.4711,-1.4744,-1.475,-1.477,-1.477,-1.4775,-1.4757,-1.4757,-1.4757,-1.4757,-1.4757,-1.4757,-1.4438,-1.4468,-1.4492,-1.4541,-1.4566,-1.4604,-1.466,-1.4686,-1.4723,-1.4746,-1.4746,-1.4772,-1.4775,-1.4775,-1.4756,-1.4757,-1.4757,-1.4757,-1.4757,-1.4433,-1.4439,-1.4477,-1.4502,-1.4562,-1.4594,-1.4637,-1.4687,-1.4713,-1.4729,-1.4754,-1.4751,-1.4764,-1.4766,-1.4766,-1.4746,-1.4746,-1.4746,-1.4746,-1.4418,-1.4428,-1.4474,-1.4512,-1.4553,-1.4595,-1.4636,-1.468,-1.4726,-1.4745,-1.4753,-1.4756,-1.4756,-1.4769,-1.4771,-1.4772,-1.4754,-1.4754,-1.4754,-1.4417,-1.4432,-1.4461,-1.4506,-1.4555,-1.4596,-1.4636,-1.4678,-1.4732,-1.4755,-1.476,-1.476,-1.4765,-1.4765,-1.4788,-1.479,-1.4791,0,0]}]]